[[{"header":{"parameterUnit":"m.s-1","parameterCategory":1,"la1":30.2991,"la2":30.254,"lo1":-89.0895,"lo2":-89.0444,"dy":0.0017,"dx":0.0017,"nx":28,"ny":28,"refTime":"2024-06-15T21:00:00:Z","depth":0,"parameterNumber":2,"parameterNumberName":"U-component_of_WINDS"},"data":[0,0,0,0,0,0,0,0,0,0,0,0,0,0,0,0,0,0,0,0,0,0,0,0,0,0,0,0,0,0,0,0,0,0,0,0,0,0,0,0,0,0,0,0,0,0,0,0,0,0,0,0,0,0,0,0,0,0,-3.5632,-3.563,0,-3.548,-3.5478,-3.5476,-3.5352,-3.5351,-3.535,-3.5349,-3.518,-3.5177,-3.5174,0,0,0,0,0,0,0,0,0,0,0,0,0,-3.5804,-3.5802,-3.5632,-3.563,-3.5628,-3.548,-3.5478,-3.5476,-3.5352,-3.5351,-3.5349,-3.5348,-3.5181,-3.5177,-3.5173,0,0,0,0,0,0,0,0,0,0,0,0,0,-3.5698,-3.5801,-3.5632,-3.5549,-3.554,-3.5481,-3.5478,-3.5475,-3.5353,-3.5351,-3.5349,-3.5347,-3.5183,-3.5178,-3.5173,-3.518,0,0,-3.5158,-3.5155,0,0,0,0,0,0,0,0,-3.5705,-3.5692,-3.5563,-3.5555,-3.5545,-3.5433,-3.5477,-3.5376,-3.5353,-3.5424,-3.5348,-3.5346,-3.5265,-3.5253,-3.5228,-3.5172,-3.5165,-3.5157,-3.5154,-3.5152,-3.5151,0,0,0,0,0,0,0,-3.5712,-3.5698,-3.5571,-3.5561,-3.555,-3.5516,-3.5498,-3.5457,-3.5356,-3.5417,-3.5408,-3.5392,-3.5259,-3.5234,-3.5223,-3.5162,-3.5157,-3.5153,-3.515,-3.5148,-3.5101,-3.5103,0,0,0,0,0,0,-3.5734,-3.5705,-3.5576,-3.5567,-3.5622,-3.5514,-3.5495,-3.5471,-3.5356,-3.5338,-3.5394,-3.5387,-3.5243,-3.5229,-3.5217,-3.5217,-3.5152,-3.5147,-3.5145,-3.51,-3.5102,-3.5104,0,0,0,0,0,0,-3.5738,-3.5724,-3.5582,-3.5633,-3.5613,-3.5513,-3.5487,-3.5469,-3.5443,-3.5339,-3.5319,-3.5387,-3.5241,-3.5224,-3.519,-3.5209,-3.5145,-3.5141,-3.5098,-3.51,-3.5103,-3.5217,0,0,0,0,0,0,-3.5744,-3.5726,-3.573,-3.5635,-3.5611,-3.5562,-3.5488,-3.5467,-3.5436,-3.5425,-3.5327,-3.5309,-3.5238,-3.5199,-3.5186,-3.5201,-3.5137,-3.5095,-3.5099,-3.5102,-3.5211,-3.5223,-3.5234,0,0,0,0,0,-3.575,-3.5766,-3.5731,-3.5716,-3.5615,-3.5564,-3.5549,-3.5472,-3.5438,-3.544,-3.5373,-3.5312,-3.521,-3.5196,-3.518,-3.5195,-3.5094,-3.5098,-3.5102,-3.5206,-3.5221,-3.5233,0,0,0,0,0,0,-3.5862,-3.5752,-3.5712,-3.5698,-3.5642,-3.5543,-3.5543,-3.549,-3.5439,-3.543,-3.5332,-3.531,-3.5287,-3.5237,-3.5224,-3.5194,-3.5144,-3.5145,-3.5228,-3.5241,-3.5252,-3.5264,-3.5133,0,0,0,0,0,-3.5886,-3.5858,-3.5761,-3.5758,-3.5732,-3.5643,-3.5618,-3.5563,-3.5499,-3.5473,-3.5404,-3.5341,-3.5294,-3.5265,-3.5216,-3.5204,-3.5179,-3.5205,-3.5217,-3.5227,-3.5228,-3.5215,-3.5226,-3.5117,-3.5117,-3.5117,0,0,-3.5933,-3.587,-3.5857,-3.5779,-3.5729,-3.5698,-3.5623,-3.5594,-3.5569,-3.5467,-3.5432,-3.5379,-3.5302,-3.5279,-3.5265,-3.5236,-3.5253,-3.5232,-3.524,-3.5236,-3.5221,-3.5231,-3.524,-3.5119,-3.5119,-3.5118,0,0,-3.6004,-3.5954,-3.5946,-3.5898,-3.5825,-3.5765,-3.5764,-3.5673,-3.5635,-3.56,-3.5523,-3.5489,-3.5412,-3.536,-3.5323,-3.5375,-3.5316,-3.5362,-3.5419,-3.5409,-3.5417,-3.5424,-3.5441,-3.5449,-3.5364,-3.5364,-3.5364,0,-3.6071,-3.6026,-3.5947,-3.5923,-3.589,-3.5801,-3.579,-3.5746,-3.5659,-3.5636,-3.5607,-3.5508,-3.5449,-3.5412,-3.5425,-3.5399,-3.5391,-3.5371,-3.5423,-3.543,-3.5435,-3.545,-3.5457,-3.537,-3.5369,-3.5368,-3.5368,0,-3.6111,-3.608,-3.6082,-3.6005,-3.5971,-3.5954,-3.587,-3.5845,-3.5793,-3.5736,-3.5699,-3.5627,-3.5562,-3.5549,-3.5496,-3.5504,-3.5488,-3.5443,-3.5389,-3.5453,-3.5465,-3.547,-3.5378,-3.5376,-3.5374,-3.5373,0,0,-3.6246,-3.6128,-3.6129,-3.6093,-3.6006,-3.5979,-3.5956,-3.5897,-3.5876,-3.5819,-3.5795,-3.5733,-3.569,-3.5649,-3.5589,-3.5581,-3.5625,-3.5535,-3.5531,-3.5553,-3.5626,-3.566,-3.5668,-3.5586,-3.5587,-3.5587,-3.5632,0,-3.6301,-3.626,-3.6189,-3.6169,-3.6139,-3.6054,-3.6033,-3.5976,-3.5922,-3.5885,-3.5823,-3.578,-3.5728,-3.5702,-3.569,-3.5622,-3.5637,-3.5618,-3.5559,-3.5558,-3.558,-3.5675,-3.571,-3.5756,-3.5636,-3.5637,-3.5638,0,-3.636,-3.6313,-3.6291,-3.6207,-3.6191,-3.6175,-3.6114,-3.6081,-3.6013,-3.5974,-3.5929,-3.5866,-3.5833,-3.5786,-3.5738,-3.5727,-3.5698,-3.5661,-3.5661,-3.5651,-3.5601,-3.5665,-3.5769,-3.5776,-3.5645,-3.5644,-3.5643,0,-3.646,-3.639,-3.6368,-3.6339,-3.624,-3.6231,-3.6188,-3.6118,-3.6087,-3.6033,-3.6011,-3.5952,-3.592,-3.5874,-3.5795,-3.5768,-3.5755,-3.5701,-3.5718,-3.572,-3.5717,-3.5718,-3.5817,-3.5702,-3.5702,-3.5702,-3.5702,0,-3.6528,-3.6518,-3.6411,-3.6398,-3.6382,-3.6299,-3.6285,-3.6234,-3.6173,-3.6145,-3.6067,-3.6041,-3.5939,-3.59,-3.5838,-3.5806,-3.5792,-3.5757,-3.574,-3.5763,-3.5768,-3.5742,-3.5736,-3.5704,-3.5703,-3.5703,-3.5703,0,-3.6636,-3.6565,-3.6535,-3.6445,-3.6422,-3.6415,-3.6335,-3.6317,-3.6259,-3.6224,-3.6211,-3.6119,-3.6069,-3.5987,-3.5911,-3.5869,-3.5849,-3.5821,-3.5874,-3.5863,-3.5884,-3.5883,-3.5967,-3.5973,-3.5858,-3.5859,-3.586,0,-3.6684,-3.6675,-3.6585,-3.6563,-3.6525,-3.6489,-3.6458,-3.6375,-3.6345,-3.6267,-3.6257,-3.6203,-3.6155,-3.6079,-3.6002,-3.5944,-3.5913,-3.5947,-3.5904,-3.5927,-3.5912,-3.5913,-3.5911,-3.5957,-3.5958,-3.596,-3.5961,0,-3.6777,-3.6742,-3.6702,-3.6651,-3.6617,-3.6571,-3.652,-3.6505,-3.641,-3.638,-3.6331,-3.6294,-3.6219,-3.6165,-3.6096,-3.6047,-3.5987,-3.5976,-3.5976,-3.5999,-3.6029,-3.6012,-3.5899,-3.5973,-3.5972,-3.5971,-3.5971,-3.597,-3.6854,-3.6842,-3.6778,-3.6735,-3.669,-3.6645,-3.6623,-3.6564,-3.6523,-3.646,-3.6412,-3.6366,-3.6295,-3.6198,-3.6153,-3.6112,-3.6085,-3.6086,-3.6086,-3.6087,-3.6096,-3.6038,-3.6099,-3.6099,-3.6098,-3.6098,-3.6098,0,-3.6941,-3.6896,-3.6859,-3.6793,-3.6759,-3.6711,-3.6652,-3.6626,-3.6588,-3.653,-3.6486,-3.6428,-3.6375,-3.6296,-3.6235,-3.6218,-3.6189,-3.6205,-3.6204,-3.6194,-3.6124,-3.6129,-3.623,-3.623,-3.623,-3.623,-3.623,-3.623,-3.6983,-3.6959,-3.6917,-3.6869,-3.6822,-3.678,-3.6751,-3.6707,-3.6661,-3.6602,-3.6559,-3.651,-3.6441,-3.6376,-3.6324,-3.6301,-3.6282,-3.6306,-3.6275,-3.6211,-3.6199,-3.6187,-3.6191,-3.6303,-3.6303,-3.6347,-3.6348,-3.6348]},{"header":{"parameterUnit":"m.s-1","parameterCategory":1,"la1":30.2991,"la2":30.254,"lo1":-89.0895,"lo2":-89.0444,"dy":0.0017,"dx":0.0017,"nx":28,"ny":28,"refTime":"2024-06-15T21:00:00:Z","depth":0,"parameterNumber":3,"parameterNumberName":"V-component_of_WINDS"},"data":[0,0,0,0,0,0,0,0,0,0,0,0,0,0,0,0,0,0,0,0,0,0,0,0,0,0,0,0,0,0,0,0,0,0,0,0,0,0,0,0,0,0,0,0,0,0,0,0,0,0,0,0,0,0,0,0,0,0,6.2022,6.2023,0,6.2111,6.2112,6.2113,6.2134,6.2133,6.2133,6.2132,6.2217,6.222,6.2222,0,0,0,0,0,0,0,0,0,0,0,0,0,6.1861,6.1864,6.2022,6.2023,6.2024,6.2111,6.2112,6.2113,6.2134,6.2133,6.2132,6.2132,6.2216,6.2219,6.2223,0,0,0,0,0,0,0,0,0,0,0,0,0,6.1939,6.1865,6.2022,6.2045,6.2048,6.211,6.2112,6.2113,6.2134,6.2133,6.2132,6.2131,6.2215,6.2219,6.2223,6.2266,0,0,6.2236,6.2238,0,0,0,0,0,0,0,0,6.1934,6.1944,6.2041,6.2044,6.2047,6.211,6.2086,6.2164,6.2134,6.2101,6.2132,6.2131,6.2182,6.2189,6.2207,6.227,6.2274,6.2236,6.2239,6.2241,6.2242,0,0,0,0,0,0,0,6.1929,6.1941,6.2057,6.2042,6.2046,6.2048,6.2058,6.2101,6.2145,6.2104,6.2106,6.2116,6.2183,6.2203,6.2209,6.2275,6.2236,6.224,6.2242,6.2244,6.2374,6.2375,0,0,0,0,0,0,6.192,6.1936,6.2054,6.2059,6.1988,6.2052,6.2063,6.2091,6.2145,6.2152,6.2117,6.2117,6.2196,6.2204,6.2212,6.2264,6.2241,6.2244,6.2247,6.2373,6.2374,6.2375,0,0,0,0,0,0,6.1917,6.1931,6.205,6.1998,6.2014,6.2056,6.2087,6.2093,6.2113,6.2155,6.2162,6.213,6.2196,6.2206,6.2252,6.2267,6.2246,6.225,6.2372,6.2373,6.2375,6.237,0,0,0,0,0,0,6.1912,6.1929,6.1949,6.1999,6.2017,6.2092,6.2088,6.2095,6.2121,6.2122,6.2168,6.2175,6.2196,6.2246,6.2256,6.2273,6.2253,6.2371,6.2372,6.2374,6.2369,6.2371,6.2372,0,0,0,0,0,6.1906,6.1943,6.195,6.1964,6.2042,6.2093,6.2103,6.2128,6.2122,6.214,6.2166,6.2174,6.2264,6.225,6.2262,6.228,6.237,6.2372,6.2374,6.2368,6.237,6.2372,0,0,0,0,0,0,6.1893,6.1951,6.1958,6.2013,6.2048,6.2096,6.212,6.213,6.2166,6.2165,6.2192,6.2202,6.2246,6.2268,6.2252,6.2323,6.2316,6.2321,6.2307,6.231,6.2312,6.2306,6.2257,0,0,0,0,0,6.1897,6.1936,6.1983,6.2026,6.2043,6.2078,6.2102,6.2118,6.2154,6.2168,6.2198,6.2231,6.2267,6.229,6.2325,6.2371,6.238,6.2389,6.2391,6.2392,6.2396,6.2419,6.2422,6.2382,6.2382,6.2382,0,0,6.1904,6.194,6.1963,6.2024,6.2053,6.209,6.2091,6.2131,6.2157,6.2174,6.2219,6.2241,6.228,6.2325,6.2347,6.2345,6.2409,6.2395,6.2396,6.2399,6.2421,6.2425,6.2428,6.2383,6.2383,6.2383,0,0,6.1937,6.1969,6.2008,6.2036,6.208,6.2103,6.2111,6.2158,6.2174,6.222,6.2232,6.2262,6.2324,6.235,6.2371,6.2408,6.2416,6.2419,6.2429,6.2451,6.2454,6.2457,6.2468,6.2472,6.2422,6.2422,6.2422,0,6.194,6.1999,6.2025,6.2064,6.2089,6.2106,6.2143,6.2169,6.2221,6.2236,6.2233,6.2309,6.2336,6.2386,6.2395,6.2413,6.2421,6.2414,6.2452,6.2455,6.2458,6.2469,6.2473,6.2422,6.2422,6.2422,6.2422,0,6.1999,6.2038,6.2064,6.2115,6.2142,6.218,6.2209,6.2233,6.2245,6.2267,6.2311,6.2344,6.2384,6.2397,6.241,6.2448,6.2445,6.2447,6.2441,6.2461,6.2472,6.2476,6.2422,6.2422,6.2422,6.2422,0,0,6.2028,6.2091,6.21,6.2121,6.2169,6.2199,6.2235,6.2276,6.2295,6.2329,6.2358,6.2408,6.2408,6.2432,6.2447,6.2466,6.249,6.2465,6.2466,6.2467,6.2532,6.253,6.2535,6.2495,6.2496,6.2497,6.2528,0,6.2065,6.2133,6.2156,6.2211,6.2245,6.226,6.2291,6.2322,6.2342,6.2372,6.2393,6.2428,6.2427,6.2441,6.2461,6.2484,6.2504,6.2482,6.252,6.2521,6.251,6.2541,6.254,6.2567,6.2532,6.2533,6.2534,0,6.2118,6.2153,6.2212,6.2252,6.2268,6.2296,6.2333,6.2362,6.2396,6.2409,6.2434,6.2446,6.2481,6.2472,6.2519,6.2503,6.2519,6.2532,6.2534,6.2538,6.2528,6.2544,6.2577,6.2581,6.2541,6.254,6.254,0,6.213,6.2193,6.2235,6.2253,6.2302,6.232,6.2341,6.2374,6.2396,6.2428,6.2441,6.2476,6.2495,6.252,6.254,6.2532,6.2583,6.2577,6.2592,6.2592,6.2603,6.2602,6.2638,6.2615,6.2614,6.2614,6.2614,0,6.2169,6.2204,6.2241,6.2267,6.2304,6.2329,6.2365,6.2386,6.2414,6.2442,6.2456,6.2481,6.2507,6.2535,6.255,6.2584,6.2593,6.2602,6.2606,6.2601,6.2599,6.2612,6.261,6.2616,6.2615,6.2615,6.2615,0,6.219,6.2217,6.2263,6.2305,6.2316,6.2342,6.2376,6.24,6.2419,6.2454,6.2463,6.2493,6.2526,6.2549,6.2591,6.2601,6.2637,6.2641,6.2627,6.2628,6.2642,6.264,6.2687,6.2693,6.2666,6.2666,6.2667,0,6.2213,6.224,6.2284,6.2304,6.2325,6.2358,6.238,6.2403,6.2425,6.2463,6.2482,6.2516,6.2544,6.2595,6.2619,6.265,6.2654,6.2668,6.2659,6.2652,6.2652,6.265,6.2652,6.2669,6.267,6.267,6.267,0,6.2249,6.226,6.2293,6.2329,6.2355,6.2385,6.2414,6.2429,6.2457,6.248,6.2515,6.2537,6.2579,6.2611,6.2644,6.2662,6.267,6.2672,6.2677,6.2672,6.2662,6.2666,6.2629,6.2671,6.2671,6.2671,6.2671,6.2671,6.2271,6.2294,6.2328,6.2363,6.2387,6.2413,6.2437,6.2459,6.2489,6.2526,6.2537,6.2572,6.26,6.2646,6.2664,6.2689,6.2688,6.2696,6.2698,6.2699,6.2698,6.2658,6.2695,6.2695,6.2695,6.2695,6.2695,0,6.2307,6.2329,6.236,6.2401,6.2427,6.2433,6.2464,6.2485,6.2516,6.2543,6.2571,6.2608,6.2639,6.2664,6.2695,6.271,6.2714,6.2717,6.2716,6.2719,6.2698,6.269,6.2713,6.2713,6.2713,6.2713,6.2713,6.2713,6.2329,6.2368,6.2382,6.2432,6.2453,6.2488,6.2505,6.2528,6.255,6.2591,6.2617,6.2634,6.2659,6.2691,6.2718,6.2725,6.2735,6.2737,6.2744,6.2723,6.2721,6.2719,6.2712,6.2739,6.2739,6.2763,6.2763,6.2763]}]]